Weather reports worldwide

Advertisment
West Freugh, United Kingdom (3132): temperature & dewpoint: 19.09.2017 10:00:00 - 25.09.2017 10:00:00 (BST)West Freugh, United Kingdom (3132): temperature -20cm & temperature -100cm: 19.09.2017 10:00:00 - 25.09.2017 10:00:00 (BST)West Freugh, United Kingdom (3132): wind speed & gusts: 19.09.2017 10:00:00 - 25.09.2017 10:00:00 (BST)West Freugh, United Kingdom (3132): wind direction: 19.09.2017 10:00:00 - 25.09.2017 10:00:00 (BST)West Freugh, United Kingdom (3132): reduced air pressure: 19.09.2017 10:00:00 - 25.09.2017 10:00:00 (BST)West Freugh, United Kingdom (3132): visibility: 19.09.2017 10:00:00 - 25.09.2017 10:00:00 (BST)West Freugh, United Kingdom (3132): precipitation: 19.09.2017 10:00:00 - 25.09.2017 10:00:00 (BST)
Date & Time tt [°C] td [°C] tt -20cm [°C] tt -100cm [°C] ff [km/h] ff [kn] fx [km/h] fx [kn] dd ppp [hPa] vv [km] rr [mm]
25.09.2017 10:00:00 12,1 12,1 13,7 13,7 11 6 - - NW 1020,8 3,5 0,0
25.09.2017 09:00:00 11,6 11,6 - - 11 6 - - NW 1020,5 0,7 0,0
25.09.2017 08:00:00 9,2 9,2 - - 4 2 - - NNW 1019,9 0,3 0,0
25.09.2017 07:00:00 10,3 10,3 - - 9 5 - - NW 1019,6 5 0,0
25.09.2017 06:00:00 11,8 11,8 - - 13 7 - - N 1019,2 35 0,0
25.09.2017 05:00:00 11,8 11,8 - - 9 5 - - NW 1019,1 6 0,0
25.09.2017 04:00:00 8,5 8,5 - - 8 4 - - WNW 1019,2 0,1 0,0
25.09.2017 03:00:00 9,4 9,4 - - 9 5 - - NW 1018,9 0,6 0,0
25.09.2017 02:00:00 8,8 8,8 - - 8 4 - - W 1018,9 0,1 0,0
25.09.2017 01:00:00 9,5 9,4 - - 4 2 - - NE 1019,0 0,1 0,2
25.09.2017 00:00:00 9,9 9,7 - - 9 5 - - W 1019,0 0,3 0,0
24.09.2017 23:00:00 11,2 11,0 - - 4 2 - - NNW 1018,7 0,1 0,0
24.09.2017 22:00:00 12,4 12,2 - - 8 4 - - W 1018,6 7 0,0
24.09.2017 21:00:00 13,2 13,1 - - 4 2 - - NNW 1018,3 9 0,6
24.09.2017 20:00:00 13,6 13,5 - - 5 3 - - WSW 1018,0 3,5 0,2
24.09.2017 19:00:00 14,0 13,9 - - 9 5 - - SSE 1017,6 2,4 1,8
24.09.2017 18:00:00 14,1 14,0 - - 11 6 - - SE 1017,0 5 0,0
24.09.2017 17:00:00 14,5 14,3 - - 15 8 - - S 1016,7 3,8 0,0
24.09.2017 16:00:00 14,6 14,3 - - 18 10 - - S 1016,5 11 0,0
24.09.2017 15:00:00 14,8 14,5 - - 16 9 - - S 1016,3 15 0,0
24.09.2017 14:00:00 14,4 14,2 - - 15 8 - - SSE 1016,2 9 0,2
24.09.2017 13:00:00 14,2 14,0 - - 16 9 - - SSE 1016,0 6 0,0
24.09.2017 12:00:00 14,3 14,2 - - 18 10 - - SSE 1015,6 13 0,0
24.09.2017 11:00:00 14,0 13,9 - - 21 11 - - SSE 1015,7 9 0,2
24.09.2017 10:00:00 13,7 13,6 13,7 13,7 22 12 - - SSE 1015,5 9 0,6
24.09.2017 09:00:00 13,7 13,5 - - 18 10 - - SSE 1014,9 7 0,0
24.09.2017 08:00:00 13,3 13,2 - - 22 12 - - SE 1014,4 4,7 0,4
24.09.2017 07:00:00 13,2 13,0 - - 26 14 - - SE 1014,2 10 2,6
24.09.2017 06:00:00 13,2 12,9 - - 28 15 - - SSE 1014,1 4,3 2,8
24.09.2017 05:00:00 13,5 12,7 - - 26 14 - - SSE 1013,9 5 1,0
24.09.2017 04:00:00 14,1 12,6 - - 24 13 52 28 SSE 1014,0 11 0,6
24.09.2017 03:00:00 14,3 12,3 - - 22 12 - - SSE 1014,2 10 0,2
24.09.2017 02:00:00 14,1 11,9 - - 31 17 - - S 1014,4 17 0,8
24.09.2017 01:00:00 15,1 11,1 - - 28 15 - - SSE 1014,5 28 0,0
24.09.2017 00:00:00 15,3 11,7 - - 24 13 - - SSE 1014,7 28 0,0
23.09.2017 23:00:00 15,4 11,7 - - 26 14 - - SSE 1014,6 30 0,0
23.09.2017 22:00:00 15,3 11,4 - - 28 15 - - SSE 1014,5 29 0,0
23.09.2017 21:00:00 15,1 11,6 - - 26 14 - - SE 1014,5 28 0,0
23.09.2017 20:00:00 15,2 11,6 - - 28 15 - - SSE 1014,3 30 0,0
23.09.2017 19:00:00 15,3 10,2 - - 34 18 48 26 SSE 1014,6 30 0,0
23.09.2017 18:00:00 15,4 13,5 - - 28 15 - - SSE 1014,5 21 0,0
23.09.2017 17:00:00 15,6 14,2 - - 31 17 46 25 SE 1014,4 23 0,0
23.09.2017 16:00:00 15,9 14,1 - - 31 17 46 25 SSE 1014,9 23 0,0
23.09.2017 15:00:00 15,7 14,7 - - 28 15 - - SSE 1015,2 17 0,0
23.09.2017 14:00:00 15,0 14,7 - - 29 16 - - SSE 1015,6 16 0,2
23.09.2017 13:00:00 15,1 14,0 - - 29 16 - - SSE 1015,7 15 0,0
23.09.2017 12:00:00 15,1 14,0 - - 28 15 - - SE 1015,8 23 0,0
23.09.2017 11:00:00 14,7 14,2 - - 26 14 - - SSE 1015,8 15 0,0
23.09.2017 10:00:00 14,7 13,9 13,4 13,7 26 14 - - SSE 1015,6 19 0,0
23.09.2017 09:00:00 14,1 13,1 - - 26 14 - - SSE 1015,5 18 0,0
23.09.2017 08:00:00 13,8 12,7 - - 22 12 - - SSE 1015,3 14 0,0
23.09.2017 07:00:00 13,5 12,4 - - 28 15 - - SSE 1014,9 16 0,0
23.09.2017 06:00:00 13,2 12,1 - - 26 14 - - SSE 1014,6 18 0,0
23.09.2017 05:00:00 13,3 12,6 - - 21 11 - - S 1014,7 16 0,0
23.09.2017 04:00:00 13,3 13,2 - - 21 11 - - S 1014,8 12 0,0
23.09.2017 03:00:00 11,8 11,8 - - 13 7 - - SSE 1014,7 7 0,2
23.09.2017 02:00:00 10,1 10,1 - - 8 4 - - S 1014,7 13 0,0
23.09.2017 01:00:00 7,2 7,1 - - 4 2 - - ESE 1015,2 0,4 0,0
23.09.2017 00:00:00 9,0 8,9 - - 8 4 - - E 1014,9 0,3 0,0
22.09.2017 23:00:00 9,9 9,8 - - 4 2 - - ENE 1014,7 0,2 0,0
22.09.2017 22:00:00 10,8 10,8 - - 5 3 - - NNE 1014,4 0,4 0,0
22.09.2017 21:00:00 10,1 9,7 - - 5 3 - - ENE 1014,3 0,2 0,0
22.09.2017 20:00:00 10,4 9,5 - - 8 4 - - S 1013,4 3,4 0,0
22.09.2017 19:00:00 13,7 12,7 - - 15 8 - - SW 1012,8 9 0,0
22.09.2017 18:00:00 14,8 13,8 - - 26 14 - - S 1012,3 11 0,0
22.09.2017 17:00:00 15,4 14,3 - - 35 19 52 28 S 1011,9 11 0,0
22.09.2017 16:00:00 14,5 13,8 - - 34 18 54 29 S 1011,7 11 0,0
22.09.2017 15:00:00 13,6 13,2 - - 39 21 63 34 SSE 1011,6 9 0,4
22.09.2017 14:00:00 13,2 12,6 - - 42 23 68 37 SSE 1011,7 6 1,0
22.09.2017 13:00:00 12,7 12,4 - - 35 19 57 31 SSE 1012,1 3,0 3,0
22.09.2017 12:00:00 12,8 11,8 - - 39 21 65 35 SE 1012,4 7 0,6
22.09.2017 11:00:00 12,7 11,6 - - 35 19 59 32 SSE 1012,8 8 2,4
22.09.2017 10:00:00 13,0 11,5 13,7 13,7 34 18 52 28 SSE 1013,2 10 0,0
22.09.2017 09:00:00 13,1 11,3 - - 31 17 52 28 SSE 1013,4 19 0,6
22.09.2017 08:00:00 13,0 10,9 - - 26 14 - - S 1013,8 20 0,0
22.09.2017 07:00:00 12,2 10,2 - - 22 12 - - S 1013,8 26 0,0
22.09.2017 06:00:00 11,4 9,8 - - 18 10 - - SSE 1014,1 40 0,0
22.09.2017 05:00:00 11,2 9,8 - - 15 8 - - SSE 1014,4 40 0,0
22.09.2017 04:00:00 10,6 9,8 - - 13 7 - - S 1014,6 35 0,0
22.09.2017 03:00:00 9,2 9,2 - - 13 7 - - S 1014,8 35 0,0
22.09.2017 02:00:00 7,9 7,7 - - 11 6 - - S 1014,9 28 0,0
22.09.2017 01:00:00 8,0 7,7 - - 9 5 - - S 1015,1 26 0,0
22.09.2017 00:00:00 7,7 7,3 - - 5 3 - - S 1015,0 50 0,0
21.09.2017 23:00:00 7,9 7,2 - - 9 5 - - SSW 1015,2 50 0,0
21.09.2017 22:00:00 9,9 9,0 - - 11 6 - - SSW 1014,6 40 0,0
21.09.2017 21:00:00 9,8 9,5 - - 15 8 - - SSW 1014,3 45 0,0
21.09.2017 20:00:00 9,0 6,9 - - 8 4 - - S 1014,1 45 0,0
21.09.2017 19:00:00 11,9 8,0 - - 9 5 - - S 1013,7 50 0,0
21.09.2017 18:00:00 14,9 8,0 - - 5 3 - - WSW 1013,3 50 0,0
21.09.2017 17:00:00 15,1 7,9 - - 11 6 - - W 1012,9 50 0,0
21.09.2017 16:00:00 14,8 8,2 - - 15 8 - - NW 1012,5 40 0,0
21.09.2017 15:00:00 14,3 9,3 - - 18 10 - - WNW 1012,2 40 0,0
21.09.2017 14:00:00 13,9 9,8 - - 22 12 - - WNW 1011,7 40 0,0
21.09.2017 13:00:00 12,8 10,6 - - 16 9 - - W 1011,2 40 0,0
21.09.2017 12:00:00 13,2 11,2 - - 21 11 - - W 1010,5 35 0,0
21.09.2017 11:00:00 12,3 9,8 - - 18 10 - - WNW 1009,9 30 0,0
21.09.2017 10:00:00 12,4 10,7 14,0 13,7 16 9 - - WNW 1009,5 35 0,0
21.09.2017 09:00:00 11,3 10,7 - - 11 6 - - WNW 1008,9 35 0,2
21.09.2017 08:00:00 10,7 9,8 - - 11 6 - - NNW 1008,4 35 0,0
21.09.2017 07:00:00 11,0 10,6 - - 11 6 - - NW 1007,9 40 0,2
21.09.2017 06:00:00 10,5 10,0 - - 11 6 - - NNW 1007,5 14 1,2
21.09.2017 05:00:00 11,1 10,8 - - 11 6 - - NW 1007,7 9 1,8
21.09.2017 04:00:00 11,3 10,9 - - 8 4 - - NW 1008,4 6 0,6
21.09.2017 03:00:00 11,2 10,8 - - 5 3 - - WNW 1008,6 50 0,6
21.09.2017 02:00:00 11,4 10,9 - - 5 3 - - NW 1008,9 30 0,2
21.09.2017 01:00:00 11,4 10,8 - - 8 4 - - NNW 1008,9 45 0,0
21.09.2017 00:00:00 11,4 10,5 - - 5 3 - - NW 1008,7 45 0,0
20.09.2017 23:00:00 11,7 10,8 - - 13 7 - - NW 1008,8 45 0,0
20.09.2017 22:00:00 12,1 11,6 - - 16 9 - - WNW 1009,0 40 0,0
20.09.2017 21:00:00 12,5 12,1 - - 21 11 - - NW 1008,4 50 0,0
20.09.2017 20:00:00 12,7 12,4 - - 16 9 - - NW 1007,6 7 0,2
20.09.2017 19:00:00 13,4 13,1 - - 21 11 - - NW 1007,0 6 0,4
20.09.2017 18:00:00 14,9 14,8 - - 18 10 - - S 1007,4 4,9 3,0
20.09.2017 17:00:00 15,0 14,9 - - 24 13 - - S 1007,9 4,8 2,6
20.09.2017 16:00:00 14,8 14,7 - - 28 15 - - S 1008,8 5 4,4
20.09.2017 15:00:00 14,8 14,6 - - 24 13 - - S 1009,5 2,9 2,4
20.09.2017 14:00:00 14,9 14,6 - - 28 15 - - SSW 1009,9 2,0 1,0
20.09.2017 13:00:00 14,9 14,6 - - 29 16 - - S 1010,3 3,7 2,4
20.09.2017 12:00:00 14,7 14,5 - - 26 14 - - S 1011,0 2,3 2,8
20.09.2017 11:00:00 14,5 14,0 - - 28 15 54 29 S 1011,3 2,6 0,6
20.09.2017 10:00:00 15,0 13,6 13,7 13,7 28 15 - - S 1011,6 12 0,0
20.09.2017 09:00:00 14,8 13,7 - - 22 12 - - S 1012,0 15 0,0
20.09.2017 08:00:00 14,4 13,5 - - 26 14 - - S 1012,2 14 0,0
20.09.2017 07:00:00 14,1 13,4 - - 24 13 - - S 1012,4 13 0,0
20.09.2017 06:00:00 14,3 13,6 - - 21 11 - - S 1013,1 12 0,0
20.09.2017 05:00:00 14,3 13,6 - - 16 9 - - S 1013,5 13 0,0
20.09.2017 04:00:00 14,1 13,4 - - 16 9 - - S 1013,9 13 0,0
20.09.2017 03:00:00 14,2 13,3 - - 16 9 - - S 1014,8 16 0,0
20.09.2017 02:00:00 14,1 13,2 - - 16 9 - - S 1015,2 18 0,0
20.09.2017 01:00:00 14,0 13,1 - - 13 7 - - SSE 1015,3 15 0,0
20.09.2017 00:00:00 13,9 13,1 - - 13 7 - - S 1015,8 14 0,0
19.09.2017 23:00:00 13,9 13,0 - - 9 5 - - S 1016,5 22 0,0
19.09.2017 22:00:00 13,8 13,0 - - 16 9 - - SSE 1016,9 17 0,0
19.09.2017 21:00:00 12,9 11,9 - - 13 7 - - SSE 1017,3 25 0,0
19.09.2017 20:00:00 12,4 11,2 - - 11 6 - - SSE 1017,7 40 0,0
19.09.2017 19:00:00 13,1 10,8 - - 13 7 - - S 1017,9 35 0,0
19.09.2017 18:00:00 14,2 10,7 - - 18 10 - - S 1018,0 35 0,0
19.09.2017 17:00:00 14,8 10,8 - - 18 10 - - S 1018,3 45 0,0
19.09.2017 16:00:00 15,2 10,4 - - 15 8 - - S 1018,5 40 0,0
19.09.2017 15:00:00 15,5 11,4 - - 15 8 - - S 1019,1 35 0,0
19.09.2017 14:00:00 15,6 9,7 - - 15 8 - - SSW 1019,7 50 0,0
19.09.2017 13:00:00 16,1 10,9 - - 15 8 - - SW 1019,8 45 0,0
19.09.2017 12:00:00 14,1 11,5 - - 9 5 - - SE 1019,9 45 0,0
19.09.2017 11:00:00 14,0 11,2 - - 8 4 - - SE 1019,8 30 0,0
19.09.2017 10:00:00 12,3 10,5 13,4 13,9 8 4 - - ESE 1020,0 30 0,0

tt = temperature
td = dewpoint
tt -20cm = temperature -20cm
tt -100cm = temperature -100cm
ff = wind speed
fx = gusts
dd = wind direction
ppp = reduced air pressure
vv = visibility
rr = precipitation

Next stations